UAL1513 KEYW-KEWR

Flight info

Callsign UAL1513
Flight time 2h 55m
Altitude 38000
Route BUFTT1 MATLK Q87 ALWZZ OGRAE Q99 QUART PHLBO4
Aircraft B737/M-SDE2E3FGHIRWXY/LB1

Departure

Time 2026-04-21 23:51
Airport Key West International Airport (KEYW)

Arrival

Time 2026-04-22 02:46
Airport Newark Liberty International Airport (KEWR)
Time Latitude Longitude Altitude Speed Heading
2026-04-21 23:20 24.55445 -81.75343 11 ft 0 kts 211°
2026-04-21 23:39 24.55447 -81.75341 11 ft 3 kts 211°
2026-04-21 23:40 24.55467 -81.75324 12 ft 4 kts 240°
2026-04-21 23:40 24.55472 -81.75302 11 ft 4 kts 308°
2026-04-21 23:40 24.55469 -81.75297 11 ft 1 kts 316°
2026-04-21 23:45 24.55492 -81.75315 11 ft 5 kts 346°
2026-04-21 23:45 24.55524 -81.75328 11 ft 5 kts 317°
2026-04-21 23:46 24.55532 -81.75378 11 ft 9 kts 269°
2026-04-21 23:46 24.55532 -81.75426 11 ft 10 kts 269°
2026-04-21 23:46 24.55531 -81.75499 11 ft 10 kts 269°
2026-04-21 23:46 24.55530 -81.75576 11 ft 10 kts 269°
2026-04-21 23:47 24.55529 -81.75652 13 ft 10 kts 269°
2026-04-21 23:47 24.55528 -81.75726 11 ft 10 kts 269°
2026-04-21 23:47 24.55528 -81.75801 11 ft 11 kts 269°
2026-04-21 23:47 24.55527 -81.75887 11 ft 11 kts 269°
2026-04-21 23:48 24.55526 -81.75972 11 ft 11 kts 269°
2026-04-21 23:48 24.55524 -81.76186 11 ft 13 kts 269°
2026-04-21 23:48 24.55522 -81.76285 11 ft 13 kts 269°
2026-04-21 23:49 24.55522 -81.76403 11 ft 12 kts 269°
2026-04-21 23:49 24.55521 -81.76493 10 ft 12 kts 269°
2026-04-21 23:49 24.55520 -81.76582 11 ft 11 kts 269°
2026-04-21 23:50 24.55522 -81.76617 11 ft 3 kts 281°
2026-04-21 23:50 24.55536 -81.76645 10 ft 6 kts 315°
2026-04-21 23:50 24.55580 -81.76656 10 ft 7 kts 358°
2026-04-21 23:50 24.55606 -81.76629 10 ft 2 kts 91°
2026-04-21 23:51 24.55606 -81.76628 10 ft 0 kts 91°
2026-04-21 23:51 24.55609 -81.76426 9 ft 69 kts 89°
2026-04-21 23:51 24.55618 -81.75596 65 ft 141 kts 89°
2026-04-21 23:51 24.55640 -81.74436 901 ft 151 kts 84°
2026-04-21 23:52 24.56029 -81.73390 1959 ft 165 kts 49°
2026-04-21 23:52 24.57229 -81.72852 2385 ft 214 kts
2026-04-21 23:52 24.58804 -81.72875 3030 ft 232 kts
2026-04-21 23:52 24.60433 -81.72885 3934 ft 245 kts
2026-04-21 23:53 24.62203 -81.72827 4781 ft 261 kts
2026-04-21 23:53 24.64046 -81.72709 5801 ft 269 kts
2026-04-21 23:53 24.65933 -81.72536 6831 ft 276 kts
2026-04-21 23:53 24.67868 -81.72328 7792 ft 281 kts
2026-04-21 23:54 24.69825 -81.72108 8837 ft 285 kts
2026-04-21 23:54 24.71784 -81.71698 9839 ft 290 kts 23°
2026-04-21 23:54 24.73482 -81.70448 10586 ft 305 kts 42°
2026-04-21 23:54 24.75046 -81.68694 10845 ft 336 kts 46°
2026-04-21 23:55 24.76682 -81.66706 11064 ft 364 kts 47°
2026-04-21 23:55 24.78412 -81.64603 11674 ft 376 kts 46°
2026-04-21 23:55 24.80195 -81.62480 12517 ft 379 kts 45°
2026-04-21 23:55 24.82008 -81.60353 13383 ft 383 kts 45°
2026-04-21 23:56 24.83855 -81.58210 14154 ft 388 kts 44°
2026-04-21 23:56 24.85776 -81.56096 14857 ft 392 kts 41°
2026-04-21 23:56 24.87744 -81.53994 15536 ft 397 kts 41°
2026-04-21 23:56 24.89748 -81.51866 16207 ft 402 kts 40°
2026-04-21 23:57 24.91770 -81.49716 16898 ft 406 kts 40°
2026-04-21 23:57 24.93141 -81.48252 17351 ft 409 kts 40°
2026-04-21 23:57 24.95199 -81.46047 18006 ft 414 kts 40°
2026-04-21 23:57 24.97267 -81.43823 18608 ft 418 kts 40°
2026-04-21 23:58 24.99358 -81.41569 19154 ft 423 kts 40°
2026-04-21 23:58 25.01469 -81.39289 19688 ft 427 kts 40°
2026-04-21 23:58 25.03596 -81.36989 20211 ft 431 kts 40°
2026-04-21 23:58 25.05748 -81.34662 20736 ft 435 kts 40°
2026-04-21 23:59 25.07921 -81.32311 21252 ft 440 kts 41°
2026-04-21 23:59 25.10115 -81.29936 21769 ft 443 kts 41°
2026-04-21 23:59 25.12326 -81.27540 22271 ft 447 kts 41°
2026-04-21 23:59 25.14553 -81.25127 22774 ft 451 kts 41°
2026-04-22 00:00 25.16767 -81.22726 23267 ft 454 kts 41°
2026-04-22 00:00 25.19030 -81.20271 23704 ft 458 kts 41°
2026-04-22 00:00 25.21342 -81.17762 24085 ft 462 kts 41°
2026-04-22 00:00 25.23636 -81.15269 24512 ft 464 kts 40°
2026-04-22 00:01 25.25936 -81.12768 24951 ft 465 kts 40°
2026-04-22 00:01 25.28245 -81.10256 25373 ft 467 kts 40°
2026-04-22 00:01 25.30567 -81.07729 25770 ft 469 kts 40°
2026-04-22 00:01 25.32866 -81.05226 26170 ft 471 kts 40°
2026-04-22 00:02 25.35218 -81.02689 26563 ft 472 kts 37°
2026-04-22 00:02 25.37917 -81.00697 26918 ft 464 kts 20°
2026-04-22 00:02 25.41002 -80.99612 27313 ft 457 kts
2026-04-22 00:02 25.44144 -80.99333 27726 ft 453 kts 358°
2026-04-22 00:03 25.47261 -80.99222 28092 ft 455 kts 358°
2026-04-22 00:03 25.50432 -80.99140 28432 ft 457 kts 357°
2026-04-22 00:03 25.53619 -80.99055 28770 ft 459 kts 358°
2026-04-22 00:03 25.56818 -80.98954 29129 ft 461 kts 358°
2026-04-22 00:04 25.60016 -80.98838 29560 ft 460 kts 358°
2026-04-22 00:04 25.63204 -80.98709 30124 ft 457 kts 358°
2026-04-22 00:04 25.66369 -80.98574 30651 ft 453 kts 358°
2026-04-22 00:04 25.69516 -80.98437 31111 ft 452 kts 358°
2026-04-22 00:05 25.72667 -80.98300 31477 ft 453 kts 357°
2026-04-22 00:05 25.75817 -80.98164 31891 ft 452 kts 357°
2026-04-22 00:05 25.78958 -80.98027 32350 ft 451 kts 357°
2026-04-22 00:05 25.82080 -80.97891 32822 ft 448 kts 356°
2026-04-22 00:06 25.85189 -80.97757 33248 ft 447 kts 356°
2026-04-22 00:06 25.88299 -80.97623 33631 ft 447 kts 356°
2026-04-22 00:06 25.91410 -80.97489 34023 ft 446 kts 356°
2026-04-22 00:06 25.94506 -80.97356 34412 ft 445 kts 355°
2026-04-22 00:07 25.97593 -80.97222 34756 ft 444 kts 355°
2026-04-22 00:07 26.00671 -80.97089 35115 ft 442 kts 355°
2026-04-22 00:07 26.03746 -80.96956 35432 ft 442 kts 355°
2026-04-22 00:07 26.06817 -80.96824 35738 ft 441 kts 355°
2026-04-22 00:08 26.09883 -80.96691 36023 ft 441 kts 355°
2026-04-22 00:08 26.12944 -80.96558 36318 ft 440 kts 355°
2026-04-22 00:08 26.16002 -80.96426 36621 ft 439 kts 354°
2026-04-22 00:08 26.19051 -80.96293 36905 ft 439 kts 354°
2026-04-22 00:09 26.22100 -80.96161 37189 ft 438 kts 354°
2026-04-22 00:09 26.25141 -80.96029 37470 ft 437 kts 354°
2026-04-22 00:09 26.28178 -80.95896 37783 ft 437 kts 354°
2026-04-22 00:09 26.31211 -80.95765 38036 ft 436 kts 354°
2026-04-22 00:10 26.34247 -80.95634 38230 ft 438 kts 354°
2026-04-22 00:10 26.40373 -80.95369 38234 ft 441 kts 354°
2026-04-22 00:11 26.46493 -80.94890 38227 ft 440 kts 357°
2026-04-22 00:11 26.52571 -80.94180 38234 ft 438 kts 357°
2026-04-22 00:12 26.58605 -80.93479 38272 ft 435 kts 357°
2026-04-22 00:12 26.64624 -80.92812 38252 ft 434 kts 357°
2026-04-22 00:13 26.70490 -80.92173 38248 ft 435 kts 357°
2026-04-22 00:13 26.76520 -80.91519 38252 ft 436 kts 357°
2026-04-22 00:14 26.82577 -80.90861 38268 ft 438 kts 357°
2026-04-22 00:14 26.88666 -80.90197 38291 ft 441 kts 357°
2026-04-22 00:15 26.94756 -80.89533 38271 ft 443 kts 357°
2026-04-22 00:15 27.00904 -80.88860 38256 ft 445 kts 357°
2026-04-22 00:16 27.07072 -80.88184 38261 ft 445 kts 357°
2026-04-22 00:16 27.13242 -80.87507 38256 ft 446 kts 357°
2026-04-22 00:17 27.19410 -80.86829 38283 ft 445 kts 358°
2026-04-22 00:17 27.25582 -80.86151 38269 ft 445 kts 358°
2026-04-22 00:18 27.31751 -80.85516 38260 ft 441 kts 353°
2026-04-22 00:18 27.34737 -80.85858 38298 ft 428 kts 343°
2026-04-22 00:18 27.37672 -80.86445 38258 ft 428 kts 342°
2026-04-22 00:19 27.43540 -80.87639 38262 ft 429 kts 342°
2026-04-22 00:19 27.49425 -80.88787 38270 ft 429 kts 343°
2026-04-22 00:20 27.55320 -80.89908 38276 ft 430 kts 343°
2026-04-22 00:20 27.61214 -80.91022 38258 ft 430 kts 343°
2026-04-22 00:21 27.67110 -80.92138 38264 ft 429 kts 343°
2026-04-22 00:21 27.72999 -80.93256 38264 ft 429 kts 343°
2026-04-22 00:22 27.78890 -80.94376 38284 ft 430 kts 343°
2026-04-22 00:22 27.84791 -80.95502 38277 ft 430 kts 343°
2026-04-22 00:23 27.90682 -80.96648 38268 ft 430 kts 343°
2026-04-22 00:23 27.96581 -80.97802 38266 ft 430 kts 343°
2026-04-22 00:24 28.02475 -80.98956 38276 ft 430 kts 343°
2026-04-22 00:24 28.08373 -81.00107 38305 ft 430 kts 343°
2026-04-22 00:25 28.14276 -81.01259 38291 ft 431 kts 343°
2026-04-22 00:25 28.20185 -81.02412 38281 ft 431 kts 343°
2026-04-22 00:26 28.26057 -81.03559 38294 ft 431 kts 343°
2026-04-22 00:26 28.31967 -81.04715 38298 ft 431 kts 343°
2026-04-22 00:27 28.37847 -81.06101 38319 ft 424 kts 334°
2026-04-22 00:27 28.43339 -81.08463 38309 ft 422 kts 332°
2026-04-22 00:28 28.48811 -81.10878 38308 ft 422 kts 333°
2026-04-22 00:28 28.54265 -81.13253 38297 ft 423 kts 333°
2026-04-22 00:29 28.59768 -81.15629 38298 ft 423 kts 333°
2026-04-22 00:29 28.65274 -81.18004 38294 ft 423 kts 333°
2026-04-22 00:30 28.70779 -81.20382 38293 ft 424 kts 333°
2026-04-22 00:30 28.76288 -81.22766 38292 ft 424 kts 333°
2026-04-22 00:31 28.81808 -81.25151 38296 ft 424 kts 333°
2026-04-22 00:31 28.87321 -81.27541 38304 ft 424 kts 333°
2026-04-22 00:32 28.92988 -81.29522 38306 ft 432 kts 344°
2026-04-22 00:32 28.99037 -81.30087 38322 ft 438 kts 350°
2026-04-22 00:33 29.05127 -81.30511 38319 ft 438 kts 350°
2026-04-22 00:33 29.11211 -81.30977 38312 ft 438 kts 349°
2026-04-22 00:34 29.17292 -81.31467 38312 ft 438 kts 349°
2026-04-22 00:34 29.23367 -81.31959 38309 ft 437 kts 349°
2026-04-22 00:35 29.29440 -81.32438 38310 ft 438 kts 350°
2026-04-22 00:35 29.35535 -81.32804 38300 ft 439 kts 351°
2026-04-22 00:36 29.41633 -81.33142 38308 ft 438 kts 351°
2026-04-22 00:36 29.47716 -81.33490 38301 ft 438 kts 351°
2026-04-22 00:37 29.53805 -81.33848 38297 ft 438 kts 351°
2026-04-22 00:37 29.59891 -81.34210 38312 ft 438 kts 350°
2026-04-22 00:38 29.65976 -81.34571 38310 ft 438 kts 350°
2026-04-22 00:38 29.72068 -81.34932 38314 ft 438 kts 350°
2026-04-22 00:39 29.78165 -81.35294 38314 ft 439 kts 350°
2026-04-22 00:39 29.84259 -81.35657 38334 ft 439 kts 351°
2026-04-22 00:40 29.90368 -81.36021 38318 ft 440 kts 351°
2026-04-22 00:40 29.96441 -81.36382 38311 ft 440 kts 351°
2026-04-22 00:41 30.02555 -81.36747 38313 ft 440 kts 351°
2026-04-22 00:41 30.08676 -81.37112 38311 ft 440 kts 351°
2026-04-22 00:42 30.13802 -81.37419 38327 ft 440 kts 351°
2026-04-22 00:42 30.19856 -81.37774 38311 ft 437 kts 351°
2026-04-22 00:43 30.25916 -81.38128 38302 ft 437 kts 351°
2026-04-22 00:43 30.32003 -81.38486 38305 ft 438 kts 351°
2026-04-22 00:44 30.38099 -81.38842 38306 ft 439 kts 351°
2026-04-22 00:44 30.44210 -81.39202 38304 ft 440 kts 351°
2026-04-22 00:45 30.50331 -81.39549 38297 ft 440 kts 351°
2026-04-22 00:45 30.56442 -81.39875 38319 ft 440 kts 351°
2026-04-22 00:46 30.62554 -81.40200 38322 ft 439 kts 351°
2026-04-22 00:46 30.68657 -81.40529 38345 ft 439 kts 351°
2026-04-22 00:47 30.74758 -81.40859 38327 ft 439 kts 351°
2026-04-22 00:47 30.80851 -81.41188 38320 ft 438 kts 351°
2026-04-22 00:48 30.86935 -81.41518 38329 ft 438 kts 351°
2026-04-22 00:48 30.93017 -81.41848 38316 ft 437 kts 351°
2026-04-22 00:49 30.99049 -81.42176 38314 ft 437 kts 351°
2026-04-22 00:49 31.05121 -81.42506 38303 ft 437 kts 351°
2026-04-22 00:50 31.11192 -81.42836 38303 ft 436 kts 351°
2026-04-22 00:50 31.17247 -81.43166 38304 ft 436 kts 351°
2026-04-22 00:51 31.23330 -81.43265 38312 ft 443 kts
2026-04-22 00:51 31.29390 -81.41482 38321 ft 459 kts 17°
2026-04-22 00:52 31.35194 -81.38328 38319 ft 460 kts 19°
2026-04-22 00:52 31.40964 -81.35088 38366 ft 462 kts 18°
2026-04-22 00:52 31.43869 -81.33483 38624 ft 461 kts 18°
2026-04-22 00:53 31.46765 -81.31895 38993 ft 457 kts 18°
2026-04-22 00:53 31.49645 -81.30323 39244 ft 456 kts 18°
2026-04-22 00:53 31.52487 -81.28778 39317 ft 458 kts 17°
2026-04-22 00:54 31.58279 -81.25626 39319 ft 459 kts 17°
2026-04-22 00:54 31.64064 -81.22464 39314 ft 458 kts 17°
2026-04-22 00:55 31.69842 -81.19305 39300 ft 458 kts 17°
2026-04-22 00:55 31.78488 -81.14573 39309 ft 457 kts 17°
2026-04-22 00:56 31.84255 -81.11410 39294 ft 457 kts 17°
2026-04-22 00:56 31.90018 -81.08243 39282 ft 457 kts 17°
2026-04-22 00:57 31.95772 -81.05077 39277 ft 457 kts 17°
2026-04-22 00:57 32.01528 -81.01903 39278 ft 457 kts 18°
2026-04-22 00:58 32.07276 -80.98696 39288 ft 458 kts 18°
2026-04-22 00:58 32.13024 -80.95473 39295 ft 458 kts 18°
2026-04-22 00:59 32.18779 -80.92244 39331 ft 458 kts 18°
2026-04-22 00:59 32.24496 -80.89034 39331 ft 458 kts 17°
2026-04-22 01:00 32.30289 -80.85778 39345 ft 458 kts 17°
2026-04-22 01:00 32.36040 -80.82541 39336 ft 458 kts 17°
2026-04-22 01:01 32.41763 -80.79315 39330 ft 458 kts 17°
2026-04-22 01:01 32.47523 -80.76063 39329 ft 459 kts 17°
2026-04-22 01:02 32.53279 -80.72809 39334 ft 459 kts 18°
2026-04-22 01:02 32.59040 -80.69547 39336 ft 459 kts 17°
2026-04-22 01:03 32.64806 -80.66277 39335 ft 459 kts 17°
2026-04-22 01:03 32.70575 -80.63002 39336 ft 460 kts 17°
2026-04-22 01:04 32.76324 -80.59656 39332 ft 461 kts 18°
2026-04-22 01:04 32.82064 -80.56233 39361 ft 462 kts 18°
2026-04-22 01:05 32.87800 -80.52809 39339 ft 461 kts 18°
2026-04-22 01:05 32.93537 -80.49391 39325 ft 461 kts 18°
2026-04-22 01:06 32.99230 -80.45999 39326 ft 460 kts 18°
2026-04-22 01:06 33.04951 -80.42587 39324 ft 459 kts 18°
2026-04-22 01:07 33.10659 -80.39178 39319 ft 459 kts 18°
2026-04-22 01:07 33.16366 -80.35764 39324 ft 458 kts 18°
2026-04-22 01:08 33.22063 -80.32351 39323 ft 459 kts 18°
2026-04-22 01:08 33.27766 -80.28930 39323 ft 459 kts 18°
2026-04-22 01:09 33.33468 -80.25503 39335 ft 459 kts 18°
2026-04-22 01:09 33.39179 -80.22066 39326 ft 459 kts 18°
2026-04-22 01:10 33.44885 -80.18626 39328 ft 459 kts 18°
2026-04-22 01:10 33.50586 -80.15185 39325 ft 459 kts 18°
2026-04-22 01:11 33.56286 -80.11738 39362 ft 458 kts 18°
2026-04-22 01:11 33.61946 -80.08312 39337 ft 458 kts 18°
2026-04-22 01:12 33.67636 -80.04862 39328 ft 458 kts 18°
2026-04-22 01:12 33.73319 -80.01412 39329 ft 457 kts 18°
2026-04-22 01:13 33.78991 -79.97962 39313 ft 457 kts 18°
2026-04-22 01:13 33.84658 -79.94510 39321 ft 456 kts 19°
2026-04-22 01:14 33.90323 -79.91054 39312 ft 456 kts 19°
2026-04-22 01:14 33.95971 -79.87601 39314 ft 455 kts 19°
2026-04-22 01:15 34.01623 -79.84142 39317 ft 455 kts 19°
2026-04-22 01:15 34.07267 -79.80682 39324 ft 455 kts 19°
2026-04-22 01:16 34.12907 -79.77219 39334 ft 455 kts 19°
2026-04-22 01:16 34.18551 -79.73749 39322 ft 455 kts 19°
2026-04-22 01:17 34.24185 -79.70273 39320 ft 455 kts 19°
2026-04-22 01:17 34.29813 -79.66790 39317 ft 454 kts 19°
2026-04-22 01:18 34.35442 -79.63303 39308 ft 454 kts 20°
2026-04-22 01:18 34.41073 -79.59814 39312 ft 455 kts 20°
2026-04-22 01:19 34.46715 -79.56315 39308 ft 456 kts 20°
2026-04-22 01:19 34.52375 -79.52799 39312 ft 458 kts 20°
2026-04-22 01:20 34.58037 -79.49193 39313 ft 461 kts 22°
2026-04-22 01:20 34.63640 -79.45368 39315 ft 463 kts 22°
2026-04-22 01:21 34.69302 -79.41691 39312 ft 457 kts 15°
2026-04-22 01:21 34.75311 -79.39732 39317 ft 443 kts
2026-04-22 01:22 34.81390 -79.38513 39324 ft 442 kts
2026-04-22 01:22 34.87464 -79.37285 39316 ft 443 kts
2026-04-22 01:23 34.93535 -79.36011 39304 ft 442 kts
2026-04-22 01:23 34.99590 -79.34717 39281 ft 442 kts
2026-04-22 01:24 35.05646 -79.33418 39298 ft 441 kts
2026-04-22 01:24 35.11687 -79.32120 39283 ft 440 kts
2026-04-22 01:25 35.17715 -79.30823 39304 ft 439 kts
2026-04-22 01:25 35.23726 -79.29530 39303 ft 438 kts
2026-04-22 01:26 35.29727 -79.28237 39320 ft 437 kts
2026-04-22 01:26 35.35714 -79.26945 39309 ft 437 kts
2026-04-22 01:27 35.41698 -79.25652 39302 ft 436 kts
2026-04-22 01:27 35.47632 -79.24366 39302 ft 436 kts
2026-04-22 01:28 35.53603 -79.23072 39304 ft 436 kts
2026-04-22 01:28 35.59572 -79.21775 39304 ft 436 kts
2026-04-22 01:29 35.65535 -79.20477 39301 ft 436 kts
2026-04-22 01:29 35.71510 -79.19143 39297 ft 439 kts
2026-04-22 01:30 35.77261 -79.16295 39299 ft 456 kts 25°
2026-04-22 01:30 35.82523 -79.11822 39298 ft 461 kts 29°
2026-04-22 01:31 35.87717 -79.07178 39292 ft 462 kts 29°
2026-04-22 01:31 35.92944 -79.02556 39295 ft 462 kts 28°
2026-04-22 01:32 35.97300 -78.98740 39284 ft 462 kts 28°
2026-04-22 01:32 36.02554 -78.94148 39292 ft 462 kts 28°
2026-04-22 01:33 36.07799 -78.89558 39282 ft 462 kts 28°
2026-04-22 01:33 36.13046 -78.84956 39291 ft 462 kts 28°
2026-04-22 01:34 36.18288 -78.80348 39301 ft 462 kts 28°
2026-04-22 01:34 36.23521 -78.75741 39311 ft 462 kts 28°
2026-04-22 01:35 36.28759 -78.71122 39284 ft 462 kts 28°
2026-04-22 01:35 36.33995 -78.66496 39296 ft 462 kts 28°
2026-04-22 01:36 36.39221 -78.61871 39285 ft 461 kts 28°
2026-04-22 01:36 36.44446 -78.57243 39300 ft 460 kts 28°
2026-04-22 01:37 36.49784 -78.52914 39287 ft 457 kts 25°
2026-04-22 01:37 36.55158 -78.48794 39278 ft 457 kts 25°
2026-04-22 01:38 36.60554 -78.44622 39272 ft 456 kts 25°
2026-04-22 01:38 36.65930 -78.40414 39277 ft 456 kts 25°
2026-04-22 01:39 36.71299 -78.36190 39284 ft 457 kts 25°
2026-04-22 01:39 36.76673 -78.31956 39274 ft 457 kts 25°
2026-04-22 01:40 36.82050 -78.27713 39272 ft 457 kts 25°
2026-04-22 01:40 36.87424 -78.23466 39271 ft 457 kts 25°
2026-04-22 01:41 36.92799 -78.19210 39261 ft 458 kts 26°
2026-04-22 01:41 36.98181 -78.14944 39261 ft 458 kts 26°
2026-04-22 01:42 37.03568 -78.10656 39256 ft 459 kts 26°
2026-04-22 01:42 37.08953 -78.06356 39258 ft 459 kts 26°
2026-04-22 01:43 37.14340 -78.02047 39264 ft 461 kts 26°
2026-04-22 01:43 37.19741 -77.97719 39257 ft 461 kts 26°
2026-04-22 01:44 37.25143 -77.93383 39259 ft 461 kts 26°
2026-04-22 01:44 37.30541 -77.89042 39256 ft 461 kts 26°
2026-04-22 01:45 37.35935 -77.84697 39265 ft 461 kts 26°
2026-04-22 01:45 37.41334 -77.80350 39264 ft 460 kts 26°
2026-04-22 01:46 37.46732 -77.76039 39269 ft 460 kts 26°
2026-04-22 01:46 37.52126 -77.71725 39266 ft 459 kts 26°
2026-04-22 01:47 37.57475 -77.67411 39275 ft 459 kts 26°
2026-04-22 01:47 37.62840 -77.63058 39269 ft 458 kts 26°
2026-04-22 01:48 37.68183 -77.58718 39257 ft 456 kts 26°
2026-04-22 01:48 37.73517 -77.54383 39264 ft 455 kts 26°
2026-04-22 01:49 37.78840 -77.50060 39266 ft 455 kts 26°
2026-04-22 01:49 37.84161 -77.45735 39264 ft 454 kts 26°
2026-04-22 01:50 37.89480 -77.41401 39261 ft 454 kts 26°
2026-04-22 01:50 37.94780 -77.37074 39259 ft 454 kts 26°
2026-04-22 01:51 38.00104 -77.32722 39244 ft 455 kts 26°
2026-04-22 01:51 38.05431 -77.28367 39236 ft 456 kts 26°
2026-04-22 01:52 38.10757 -77.24006 39241 ft 456 kts 26°
2026-04-22 01:52 38.16089 -77.19630 39230 ft 456 kts 27°
2026-04-22 01:53 38.21405 -77.15256 39244 ft 455 kts 27°
2026-04-22 01:53 38.26706 -77.10890 39233 ft 453 kts 27°
2026-04-22 01:54 38.31921 -77.06397 39232 ft 454 kts 30°
2026-04-22 01:54 38.36959 -77.01508 39250 ft 458 kts 32°
2026-04-22 01:55 38.42019 -76.96537 39243 ft 461 kts 31°
2026-04-22 01:55 38.47128 -76.91573 39241 ft 462 kts 31°
2026-04-22 01:56 38.52255 -76.86616 39225 ft 462 kts 31°
2026-04-22 01:56 38.57374 -76.81663 39229 ft 461 kts 32°
2026-04-22 01:57 38.62463 -76.76726 39243 ft 457 kts 32°
2026-04-22 01:57 38.67517 -76.71813 39245 ft 455 kts 32°
2026-04-22 01:58 38.72548 -76.66915 39252 ft 454 kts 32°
2026-04-22 01:58 38.77561 -76.62028 39250 ft 453 kts 32°
2026-04-22 01:59 38.82585 -76.57122 39257 ft 454 kts 32°
2026-04-22 01:59 38.87624 -76.52191 39256 ft 457 kts 32°
2026-04-22 02:00 38.92688 -76.47224 39237 ft 460 kts 32°
2026-04-22 02:00 38.95254 -76.44706 38644 ft 466 kts 32°
2026-04-22 02:00 38.97811 -76.42187 37993 ft 462 kts 32°
2026-04-22 02:01 39.00362 -76.39675 37272 ft 460 kts 32°
2026-04-22 02:01 39.02894 -76.37175 36567 ft 459 kts 33°
2026-04-22 02:01 39.05349 -76.34524 35834 ft 461 kts 36°
2026-04-22 02:01 39.07731 -76.31749 35014 ft 462 kts 37°
2026-04-22 02:02 39.10087 -76.28929 34169 ft 464 kts 37°
2026-04-22 02:02 39.12461 -76.26090 33151 ft 466 kts 36°
2026-04-22 02:02 39.14841 -76.23267 32202 ft 466 kts 36°
2026-04-22 02:02 39.17240 -76.20445 31227 ft 467 kts 36°
2026-04-22 02:03 39.19650 -76.17624 30190 ft 469 kts 36°
2026-04-22 02:03 39.22072 -76.14793 28946 ft 471 kts 36°
2026-04-22 02:03 39.24499 -76.11951 27890 ft 470 kts 36°
2026-04-22 02:03 39.26914 -76.09119 27603 ft 471 kts 36°
2026-04-22 02:04 39.31572 -76.03632 27299 ft 438 kts 36°
2026-04-22 02:04 39.33765 -76.01039 27258 ft 417 kts 36°
2026-04-22 02:04 39.35856 -75.98567 27242 ft 398 kts 36°
2026-04-22 02:05 39.37851 -75.96210 27239 ft 380 kts 35°
2026-04-22 02:05 39.39760 -75.93958 27261 ft 365 kts 35°
2026-04-22 02:05 39.41627 -75.91762 27275 ft 366 kts 34°
2026-04-22 02:05 39.43568 -75.89496 27294 ft 385 kts 35°
2026-04-22 02:06 39.45602 -75.87120 27289 ft 403 kts 35°
2026-04-22 02:06 39.47719 -75.84632 27290 ft 418 kts 36°
2026-04-22 02:06 39.49883 -75.82073 27044 ft 422 kts 36°
2026-04-22 02:06 39.52032 -75.79513 26141 ft 420 kts 36°
2026-04-22 02:07 39.54194 -75.76938 24917 ft 423 kts 36°
2026-04-22 02:07 39.56374 -75.74345 23747 ft 429 kts 36°
2026-04-22 02:07 39.58574 -75.71727 22670 ft 429 kts 36°
2026-04-22 02:07 39.60757 -75.69124 21797 ft 424 kts 36°
2026-04-22 02:08 39.62908 -75.66559 21152 ft 415 kts 36°
2026-04-22 02:08 39.65007 -75.64053 20754 ft 406 kts 36°
2026-04-22 02:08 39.67082 -75.61581 20408 ft 408 kts 36°
2026-04-22 02:08 39.69195 -75.59065 20011 ft 414 kts 36°
2026-04-22 02:09 39.71310 -75.56528 19588 ft 413 kts 36°
2026-04-22 02:09 39.73404 -75.54004 19175 ft 409 kts 36°
2026-04-22 02:09 39.75486 -75.51489 18759 ft 407 kts 36°
2026-04-22 02:09 39.77570 -75.48975 18044 ft 410 kts 37°
2026-04-22 02:10 39.79639 -75.46473 17561 ft 402 kts 37°
2026-04-22 02:10 39.81665 -75.44021 17135 ft 395 kts 36°
2026-04-22 02:10 39.83673 -75.41591 16757 ft 393 kts 36°
2026-04-22 02:10 39.85674 -75.39173 16361 ft 395 kts 36°
2026-04-22 02:11 39.87689 -75.36739 15965 ft 393 kts 37°
2026-04-22 02:11 39.89682 -75.34323 15565 ft 390 kts 37°
2026-04-22 02:11 39.91660 -75.31921 15177 ft 388 kts 37°
2026-04-22 02:11 39.93621 -75.29537 14786 ft 385 kts 37°
2026-04-22 02:12 39.95585 -75.27152 14410 ft 385 kts 37°
2026-04-22 02:12 39.97534 -75.24782 14029 ft 383 kts 37°
2026-04-22 02:12 39.99479 -75.22415 13591 ft 381 kts 37°
2026-04-22 02:12 40.01413 -75.20060 13181 ft 379 kts 37°
2026-04-22 02:13 40.03335 -75.17714 12791 ft 378 kts 37°
2026-04-22 02:13 40.05249 -75.15378 12408 ft 375 kts 37°
2026-04-22 02:13 40.07151 -75.13057 12020 ft 374 kts 37°
2026-04-22 02:13 40.09046 -75.10744 11667 ft 371 kts 37°
2026-04-22 02:14 40.10915 -75.08454 11290 ft 365 kts 37°
2026-04-22 02:14 40.12729 -75.06227 10932 ft 352 kts 36°
2026-04-22 02:14 40.14477 -75.04086 10617 ft 337 kts 36°
2026-04-22 02:14 40.16150 -75.02036 10437 ft 322 kts 36°
2026-04-22 02:15 40.17741 -75.00080 10329 ft 306 kts 36°
2026-04-22 02:15 40.19253 -74.98222 10202 ft 291 kts 35°
2026-04-22 02:15 40.20693 -74.96454 10084 ft 278 kts 34°
2026-04-22 02:15 40.22092 -74.94739 9743 ft 273 kts 34°
2026-04-22 02:16 40.23482 -74.93039 9298 ft 274 kts 35°
2026-04-22 02:16 40.24869 -74.91338 8889 ft 274 kts 35°
2026-04-22 02:16 40.26226 -74.89580 8509 ft 275 kts 39°
2026-04-22 02:16 40.27525 -74.87752 8213 ft 273 kts 40°
2026-04-22 02:17 40.28812 -74.85926 8020 ft 274 kts 40°
2026-04-22 02:17 40.30092 -74.84113 7977 ft 275 kts 40°
2026-04-22 02:17 40.31393 -74.82280 7971 ft 274 kts 40°
2026-04-22 02:17 40.32695 -74.80451 7968 ft 274 kts 40°
2026-04-22 02:18 40.33995 -74.78620 7981 ft 275 kts 40°
2026-04-22 02:18 40.35301 -74.76785 7971 ft 275 kts 40°
2026-04-22 02:18 40.36182 -74.75545 7972 ft 276 kts 40°
2026-04-22 02:18 40.37490 -74.73704 7966 ft 276 kts 40°
2026-04-22 02:19 40.38800 -74.71859 7962 ft 277 kts 40°
2026-04-22 02:19 40.40114 -74.70008 7959 ft 278 kts 40°
2026-04-22 02:19 40.41434 -74.68151 7951 ft 277 kts 38°
2026-04-22 02:19 40.42987 -74.66804 7955 ft 262 kts 13°
2026-04-22 02:20 40.44722 -74.66212 7950 ft 256 kts
2026-04-22 02:20 40.46469 -74.65762 7947 ft 256 kts
2026-04-22 02:20 40.48219 -74.65321 7946 ft 256 kts
2026-04-22 02:20 40.49966 -74.64874 7951 ft 255 kts
2026-04-22 02:21 40.51708 -74.64420 7951 ft 255 kts
2026-04-22 02:21 40.53423 -74.63969 7962 ft 255 kts
2026-04-22 02:21 40.55166 -74.63510 7956 ft 256 kts
2026-04-22 02:21 40.56938 -74.63036 7958 ft 257 kts
2026-04-22 02:22 40.58687 -74.62572 7945 ft 258 kts
2026-04-22 02:22 40.60426 -74.62109 7960 ft 259 kts
2026-04-22 02:22 40.62213 -74.61627 7955 ft 258 kts
2026-04-22 02:22 40.63950 -74.61159 7952 ft 256 kts
2026-04-22 02:23 40.65695 -74.60694 7946 ft 256 kts
2026-04-22 02:23 40.67439 -74.60223 7941 ft 256 kts
2026-04-22 02:23 40.69183 -74.59760 7951 ft 254 kts
2026-04-22 02:23 40.70915 -74.59290 7965 ft 255 kts
2026-04-22 02:24 40.72647 -74.58820 7952 ft 252 kts
2026-04-22 02:24 40.74369 -74.58359 7962 ft 252 kts
2026-04-22 02:24 40.76096 -74.57895 7963 ft 254 kts
2026-04-22 02:24 40.77833 -74.57429 7952 ft 256 kts
2026-04-22 02:25 40.79575 -74.56959 7992 ft 256 kts
2026-04-22 02:25 40.81326 -74.56486 7995 ft 258 kts
2026-04-22 02:25 40.83089 -74.56012 7992 ft 259 kts
2026-04-22 02:25 40.84859 -74.55600 7979 ft 262 kts 11°
2026-04-22 02:26 40.86407 -74.54235 7998 ft 279 kts 43°
2026-04-22 02:26 40.87457 -74.52032 7991 ft 290 kts 62°
2026-04-22 02:26 40.88045 -74.49459 7994 ft 294 kts 71°
2026-04-22 02:26 40.88511 -74.46826 7998 ft 295 kts 72°
2026-04-22 02:27 40.88960 -74.44170 7992 ft 297 kts 72°
2026-04-22 02:27 40.89414 -74.41518 7993 ft 296 kts 72°
2026-04-22 02:27 40.89877 -74.38866 7977 ft 294 kts 72°
2026-04-22 02:27 40.90342 -74.36237 7961 ft 294 kts 72°
2026-04-22 02:28 40.90806 -74.33620 7943 ft 289 kts 72°
2026-04-22 02:28 40.91266 -74.31030 7823 ft 288 kts 73°
2026-04-22 02:28 40.91725 -74.28467 7694 ft 285 kts 72°
2026-04-22 02:28 40.92187 -74.25929 7578 ft 284 kts 72°
2026-04-22 02:29 40.92639 -74.23395 7362 ft 284 kts 73°
2026-04-22 02:29 40.93096 -74.20831 7134 ft 288 kts 73°
2026-04-22 02:29 40.93497 -74.18256 6861 ft 285 kts 84°
2026-04-22 02:29 40.93163 -74.15711 6593 ft 282 kts 115°
2026-04-22 02:30 40.92030 -74.13654 6344 ft 273 kts 140°
2026-04-22 02:30 40.90498 -74.12312 6138 ft 258 kts 153°
2026-04-22 02:30 40.88963 -74.11181 5768 ft 250 kts 154°
2026-04-22 02:30 40.87459 -74.10078 5385 ft 242 kts 154°
2026-04-22 02:31 40.86014 -74.09009 5020 ft 235 kts 154°
2026-04-22 02:31 40.84613 -74.08011 4600 ft 227 kts 162°
2026-04-22 02:31 40.83125 -74.07918 4179 ft 211 kts 202°
2026-04-22 02:31 40.81790 -74.08662 3808 ft 202 kts 205°
2026-04-22 02:32 40.80531 -74.09346 3450 ft 194 kts 205°
2026-04-22 02:32 40.79344 -74.10043 3046 ft 180 kts 206°
2026-04-22 02:32 40.78247 -74.10724 2625 ft 171 kts 206°
2026-04-22 02:32 40.77185 -74.11403 2150 ft 167 kts 205°
2026-04-22 02:33 40.76138 -74.12058 1610 ft 166 kts 204°
2026-04-22 02:33 40.75121 -74.12697 1249 ft 157 kts 205°
2026-04-22 02:33 40.74207 -74.13313 1019 ft 139 kts 205°
2026-04-22 02:33 40.73378 -74.13859 953 ft 149 kts 204°
2026-04-22 02:34 40.72334 -74.14522 1097 ft 171 kts 204°
2026-04-22 02:34 40.71291 -74.15186 1136 ft 163 kts 204°
2026-04-22 02:34 40.70252 -74.15846 1188 ft 172 kts 204°
2026-04-22 02:34 40.69090 -74.16644 1526 ft 208 kts 210°
2026-04-22 02:35 40.67738 -74.17745 2153 ft 240 kts 212°
2026-04-22 02:35 40.66327 -74.18928 2894 ft 241 kts 213°
2026-04-22 02:35 40.64942 -74.20163 2975 ft 243 kts 222°
2026-04-22 02:35 40.64019 -74.22007 2993 ft 246 kts 251°
2026-04-22 02:36 40.63939 -74.24243 2994 ft 247 kts 281°
2026-04-22 02:36 40.64704 -74.26238 2995 ft 245 kts 304°
2026-04-22 02:36 40.65781 -74.27982 2992 ft 245 kts 307°
2026-04-22 02:36 40.66881 -74.29688 2986 ft 244 kts 307°
2026-04-22 02:37 40.68024 -74.31340 2977 ft 246 kts 317°
2026-04-22 02:37 40.69576 -74.32284 2982 ft 252 kts 348°
2026-04-22 02:37 40.71317 -74.32076 2985 ft 256 kts 19°
2026-04-22 02:37 40.72935 -74.31068 3008 ft 260 kts 26°
2026-04-22 02:38 40.74543 -74.29940 3004 ft 263 kts 27°
2026-04-22 02:38 40.76146 -74.28798 3000 ft 261 kts 27°
2026-04-22 02:38 40.77745 -74.27653 2997 ft 261 kts 27°
2026-04-22 02:38 40.79318 -74.26526 2988 ft 261 kts 27°
2026-04-22 02:39 40.80930 -74.25368 2990 ft 260 kts 27°
2026-04-22 02:39 40.82515 -74.24234 2988 ft 259 kts 27°
2026-04-22 02:39 40.84105 -74.23096 2989 ft 259 kts 27°
2026-04-22 02:39 40.85688 -74.21969 2986 ft 258 kts 27°
2026-04-22 02:40 40.87244 -74.20862 2978 ft 257 kts 27°
2026-04-22 02:40 40.88816 -74.19739 2988 ft 256 kts 30°
2026-04-22 02:40 40.90059 -74.18095 2986 ft 255 kts 67°
2026-04-22 02:40 40.90303 -74.15829 2997 ft 251 kts 105°
2026-04-22 02:41 40.89491 -74.13869 2996 ft 243 kts 140°
2026-04-22 02:41 40.88254 -74.12355 3000 ft 242 kts 142°
2026-04-22 02:41 40.86965 -74.10919 2981 ft 243 kts 143°
2026-04-22 02:41 40.85694 -74.09505 2972 ft 232 kts 143°
2026-04-22 02:42 40.84454 -74.08329 2958 ft 207 kts 164°
2026-04-22 02:42 40.83154 -74.08364 2991 ft 177 kts 201°
2026-04-22 02:42 40.82035 -74.08843 2958 ft 163 kts 198°
2026-04-22 02:42 40.80942 -74.09296 2560 ft 161 kts 200°
2026-04-22 02:43 40.79908 -74.09776 2314 ft 155 kts 201°
2026-04-22 02:43 40.78891 -74.10343 2048 ft 164 kts 204°
2026-04-22 02:43 40.77864 -74.10958 1809 ft 155 kts 204°
2026-04-22 02:43 40.76919 -74.11564 1622 ft 146 kts 205°
2026-04-22 02:44 40.76023 -74.12141 1435 ft 142 kts 204°
2026-04-22 02:44 40.75175 -74.12690 1348 ft 128 kts 204°
2026-04-22 02:44 40.74413 -74.13191 1190 ft 121 kts 204°
2026-04-22 02:44 40.73651 -74.13673 978 ft 121 kts 204°
2026-04-22 02:45 40.72901 -74.14164 778 ft 119 kts 203°
2026-04-22 02:45 40.72158 -74.14622 570 ft 117 kts 203°
2026-04-22 02:45 40.71419 -74.15102 410 ft 118 kts 203°
2026-04-22 02:45 40.70677 -74.15568 238 ft 119 kts 204°
2026-04-22 02:46 40.69935 -74.16042 69 ft 118 kts 204°
2026-04-22 02:46 40.69227 -74.16490 24 ft 102 kts 206°
2026-04-22 02:46 40.68696 -74.16827 20 ft 67 kts 205°
2026-04-22 02:46 40.68440 -74.16990 21 ft 27 kts 206°
2026-04-22 02:47 40.68299 -74.17121 22 ft 21 kts 224°
2026-04-22 02:47 40.68223 -74.17256 22 ft 16 kts 236°
2026-04-22 02:47 40.68170 -74.17358 21 ft 9 kts 236°
2026-04-22 02:47 40.68144 -74.17412 23 ft 0 kts 249°
2026-04-22 02:48 40.68143 -74.17421 20 ft 5 kts 259°
2026-04-22 02:49 40.68160 -74.17492 22 ft 12 kts 296°
2026-04-22 02:49 40.68201 -74.17603 21 ft 8 kts 296°
2026-04-22 02:49 40.68205 -74.17676 21 ft 9 kts 232°
2026-04-22 02:49 40.68155 -74.17717 21 ft 9 kts 218°
2026-04-22 02:50 40.68156 -74.17780 21 ft 5 kts 295°
2026-04-22 02:50 40.68171 -74.17823 22 ft 5 kts 295°
2026-04-22 02:50 40.68186 -74.17866 21 ft 6 kts 296°
2026-04-22 02:50 40.68209 -74.17927 22 ft 9 kts 296°
2026-04-22 02:51 40.68242 -74.18002 22 ft 9 kts 316°
2026-04-22 02:51 40.68296 -74.18049 22 ft 9 kts 323°
2026-04-22 02:51 40.68342 -74.18105 23 ft 9 kts 310°
2026-04-22 02:51 40.68355 -74.18180 21 ft 7 kts 274°
2026-04-22 02:52 40.68356 -74.18200 21 ft 0 kts 274°